Flag Weather past 2 weeks in Kamloops, British Columbia, Canada

Now
48 °F

Passing clouds.


Feels Like: 47 °F
Forecast: -3 / 42 °F
Wind: 3 mph from East

Location: Kamloops

Current Time: Nov 27, 2014 at 9:52:50 PM

Latest Report: Nov 27, 2014 at 9:00 PM


Visibility: 40 mi

Pressure: 29.43 "Hg

Humidity: 66%

Dew point: 37 °F

Location of KamloopsLocation

Historic Weather in Kamloops — Graph

°F

Kamloops temperature yesterday

Maximum temperature yesterday: 36 °F (at 6:00 PM)
Minimum temperature yesterday: 32 °F (at 4:00 AM)
Average temperature yesterday: 34 °F

Past Weeks' High & Low Weather Summary

 TemperatureHumidityPressure
High46 °F (Nov 27, 2:00 PM)100% (Nov 23, 2:00 AM)30.82 "Hg (Nov 23, 2:00 AM)
Low9 °F (Nov 15, 5:00 AM)42% (Nov 14, 11:00 AM)29.27 "Hg (Nov 21, 10:00 PM)
Average29 °F77%30.20 "Hg
* Reported Nov 12 8:00 PM — Nov 27 8:00 PM, Kamloops, Weather by CustomWeather, © 2014

Note: Actual official high and low records may vary slightly from our data, if they occured in-between our weather recording intervals... More about our weather records

Advertising

Kamloops weather history for previous 24 hours

 ConditionsComfort  
Time TempWeatherWind HumidityBarometerVisibility
8:00 PM
Nov 27
45 °FPassing clouds.16 mph76%29.45 "Hg40 mi
7:00 PM46 °FPassing clouds.18 mph71%29.44 "Hg40 mi
6:00 PM45 °FPassing clouds.2 mph76%29.47 "Hg40 mi
5:00 PM45 °FPassing clouds.16 mph76%29.52 "Hg40 mi
4:00 PM45 °FScattered clouds.16 mph76%29.52 "Hg40 mi
3:00 PM46 °FScattered clouds.25 mph71%29.54 "Hg40 mi
2:00 PM46 °FScattered clouds.24 mph71%29.56 "Hg40 mi
1:00 PM45 °FBroken clouds.20 mph76%29.59 "Hg40 mi
12:00 PM45 °FBroken clouds.18 mph76%29.60 "Hg40 mi
11:00 AM43 °FBroken clouds.15 mph81%29.64 "Hg40 mi
10:00 AM39 °FPartly sunny.12 mph87%29.68 "Hg30 mi
9:00 AM37 °FPartly sunny.14 mph87%29.70 "Hg30 mi
8:00 AM36 °FBroken clouds.14 mph87%29.70 "Hg30 mi
7:00 AM36 °FPartly cloudy.15 mph93%29.70 "Hg30 mi
6:00 AM36 °FPassing clouds.13 mph93%29.71 "Hg30 mi
5:00 AM36 °FPassing clouds.6 mph87%29.73 "Hg30 mi
4:00 AM36 °FPassing clouds.9 mph87%29.74 "Hg30 mi
3:00 AM36 °FPartly cloudy.12 mph93%29.77 "Hg30 mi
2:00 AM36 °FOvercast.14 mph87%29.78 "Hg30 mi
1:00 AM36 °FMostly cloudy.13 mph87%29.79 "Hg30 mi
12:00 AM36 °FLight rain. Overcast.13 mph87%29.80 "Hg30 mi
11:00 PM
Nov 26
36 °FLight rain. Overcast.13 mph87%29.85 "Hg30 mi
10:48 PM36 °FLight rain. Overcast.16 mph87%29.85 "Hg30 mi
10:00 PM36 °FOvercast.13 mph87%29.87 "Hg30 mi
9:00 PM36 °FOvercast.10 mph87%29.90 "Hg20 mi
Weather by CustomWeather, © 2014

See weather overviewHow to use our weather pages